OneWeb SL0616

operational
NORAD ID: 55157 Int'l Des: 2023-004 Owner: ONEWEBN Country: UK Constellation: oneweb
LEOCIRCULARPOLARONEWEB_TYPE

OneWeb SL0616について

説明を読み込み中...

リアルタイム位置

3D地球を読み込み中...

次回通過

高度履歴

Altitude vs Time

uPlot chart will show altitude changes over time

軌道要素

1 55157U 23004T 25352.18713886 .00000020 00000-0 19015-4 0 9993
2 55157 87.9114 41.8512 0002557 82.7002 277.4420 13.17647830143862
Epoch: Dec 18, 2025 • Age: 15 hours

現在のステータス

高度 1195.9 km
速度 7.26 km/s
衛星直下点 8.65°N, 165.33°W
打ち上げ日 Jan 10, 2023
運用期間 2.9 years
タイプ internet

技術仕様

分類 Payload
質量 148.00 kg
乾燥質量 140.00 kg
総質量 148.00 kg
長さ 1.30 m
直径 1.00 m
スパン 5.00 m
形状 Trapezoid+2 pan
製造者 ONEWUS
バスタイプ ARROW
フェーズステータス In Orbit
所有者/国 ONEWEBN/UK

大規模コンステレーション

Loading constellations...